Time,TemperatureF,DewpointF,PressureIn,WindDirection,WindDirectionDegrees,WindSpeedMPH,WindSpeedGustMPH,Humidity,HourlyPrecipIn,Conditions,Clouds,dailyrainin,SolarRadiationWatts/m^2,SoftwareType,DateUTC
2017-04-28 00:03:00,74.6,51.0,29.97,West,269,0.0,-999.0,43,-99.99,,,0.00,0,weatherlink.com 1.10,2017-04-28 04:03:00,
2017-04-28 00:18:00,74.6,50.0,29.97,West,269,0.0,-999.0,42,-99.99,,,0.00,0,weatherlink.com 1.10,2017-04-28 04:18:00,
2017-04-28 00:33:00,74.6,50.0,29.96,WSW,240,0.0,-999.0,42,-99.99,,,0.00,0,weatherlink.com 1.10,2017-04-28 04:33:00,
2017-04-28 00:48:00,74.6,49.0,29.96,WSW,244,0.0,-999.0,41,-99.99,,,0.00,0,weatherlink.com 1.10,2017-04-28 04:48:00,
2017-04-28 01:03:00,74.5,49.0,29.96,SW,234,0.0,-999.0,41,-99.99,,,0.00,0,weatherlink.com 1.10,2017-04-28 05:03:00,
2017-04-28 01:18:00,74.6,49.0,29.97,WSW,246,0.0,-999.0,41,-99.99,,,0.00,0,weatherlink.com 1.10,2017-04-28 05:18:00,
2017-04-28 01:33:00,74.5,49.0,29.97,WSW,248,0.0,-999.0,41,-99.99,,,0.00,0,weatherlink.com 1.10,2017-04-28 05:33:00,
2017-04-28 01:48:00,74.5,49.0,29.97,SW,217,0.0,-999.0,40,-99.99,,,0.00,0,weatherlink.com 1.10,2017-04-28 05:48:00,
2017-04-28 02:03:00,74.5,49.0,29.97,WNW,300,0.0,-999.0,40,-99.99,,,0.00,0,weatherlink.com 1.10,2017-04-28 06:03:00,
2017-04-28 02:18:00,74.4,48.0,29.98,WSW,244,0.0,-999.0,40,-99.99,,,0.00,0,weatherlink.com 1.10,2017-04-28 06:18:00,
2017-04-28 02:33:00,74.5,48.0,29.98,WSW,253,0.0,-999.0,39,-99.99,,,0.00,0,weatherlink.com 1.10,2017-04-28 06:33:00,
2017-04-28 02:48:00,74.6,48.0,29.99,West,261,0.0,-999.0,39,-99.99,,,0.00,0,weatherlink.com 1.10,2017-04-28 06:48:00,
2017-04-28 03:03:00,74.6,48.0,29.99,SW,235,0.0,-999.0,39,-99.99,,,0.00,0,weatherlink.com 1.10,2017-04-28 07:03:00,
2017-04-28 03:18:00,74.7,47.0,29.99,WSW,258,0.0,-999.0,38,-99.99,,,0.00,0,weatherlink.com 1.10,2017-04-28 07:18:00,
2017-04-28 03:33:00,74.7,47.0,29.99,SSW,211,0.0,-999.0,38,-99.99,,,0.00,0,weatherlink.com 1.10,2017-04-28 07:33:00,
2017-04-28 03:48:00,74.8,47.0,29.99,SW,219,0.0,-999.0,38,-99.99,,,0.00,0,weatherlink.com 1.10,2017-04-28 07:48:00,
2017-04-28 04:03:00,75.0,48.0,30.00,West,277,0.0,-999.0,38,-99.99,,,0.00,0,weatherlink.com 1.10,2017-04-28 08:03:00,
2017-04-28 04:18:00,74.9,48.0,29.99,SW,234,0.0,-999.0,38,-99.99,,,0.00,0,weatherlink.com 1.10,2017-04-28 08:18:00,
2017-04-28 04:33:00,74.8,47.0,29.99,West,259,0.0,-999.0,38,-99.99,,,0.00,0,weatherlink.com 1.10,2017-04-28 08:33:00,
2017-04-28 04:48:00,74.8,47.0,30.00,WSW,247,0.0,-999.0,38,-99.99,,,0.00,0,weatherlink.com 1.10,2017-04-28 08:48:00,
2017-04-28 05:03:00,74.8,47.0,30.01,WSW,251,0.0,-999.0,38,-99.99,,,0.00,0,weatherlink.com 1.10,2017-04-28 09:03:00,
2017-04-28 05:18:00,74.7,47.0,30.01,SW,221,0.0,-999.0,38,-99.99,,,0.00,0,weatherlink.com 1.10,2017-04-28 09:18:00,
2017-04-28 05:33:00,74.7,47.0,30.01,WSW,257,0.0,-999.0,38,-99.99,,,0.00,0,weatherlink.com 1.10,2017-04-28 09:33:00,
2017-04-28 05:48:00,74.7,47.0,30.01,West,281,0.0,-999.0,38,-99.99,,,0.00,0,weatherlink.com 1.10,2017-04-28 09:48:00,
2017-04-28 06:03:00,74.6,47.0,30.01,SW,227,0.0,-999.0,38,-99.99,,,0.00,0,weatherlink.com 1.10,2017-04-28 10:03:00,
2017-04-28 06:19:00,74.6,47.0,30.02,WSW,240,0.0,-999.0,38,-99.99,,,0.00,0,weatherlink.com 1.10,2017-04-28 10:19:00,